Huntsville, TX

2:39 PM CDT on June 22, 2017 (GMT -0500)
Huntsville Municipal

Weather History for KUTS - March, 2013

Change the Weather History Date:

Wednesday, March 20, 2013

  Actual Average (KCXO) Record (KCXO)
Temperature  
Mean Temperature 61 °F -  
Max Temperature 71 °F 70 °F 84 °F (2017)
Min Temperature 51 °F 48 °F 36 °F (2008)
Degree Days  
Heating Degree Days 4    
Growing Degree Days 11 (Base 50)    
Moisture  
Dew Point 45 °F    
Average Humidity 67    
Maximum Humidity 97    
Minimum Humidity 25    
Precipitation  
Precipitation 0.39 in - - ()
Sea Level Pressure  
Sea Level Pressure 30.13 in    
Wind  
Wind Speed 6 mph (NE)    
Max Wind Speed 9 mph    
Max Gust Speed 18 mph    
Visibility 10 miles    
Events Rain , Thunderstorm    
Averages and records for this station are not official NWS values.
T = Trace of Precipitation, MM = Missing Value Source: NWS Daily Summary

Daily Weather History Graph

Daily Weather History Graph

Search for Another Location

Airport or City:

Trip Planner

Search our weather history database for the weather conditions in past years. The results will help you decide how hot, cold, wet, or windy it might be!

Date:

Astronomy

Mar. 20, 2013 Rise Set
Actual Time 7:25 AM CDT 7:34 PM CDT
Civil Twilight 7:01 AM CDT 7:58 PM CDT
Nautical Twilight 6:33 AM CDT 8:26 PM CDT
Astronomical Twilight 6:05 AM CDT 8:54 PM CDT
Moon 1:31 PM CDT (3/20) 2:44 AM CDT (3/20)
Length of Visible Light 12h 56m
Length of Day
12h 08m
First Quarter, 59% of the Moon is Illuminated
Mar 20
First Quarter
Mar 27
Full
Apr 2
Last Quarter
Apr 10
New
Apr 18
First Quarter

Hourly Weather History & Observations

Time (CDT) Temp. Dew Point Humidity Pressure Visibility Wind Dir Wind Speed Gust Speed Precip Events Conditions
12:53 AM 64.9 °F 42.1 °F 43% 30.04 in 10.0 mi NNE 9.2 mph 18.4 mph N/A   Mostly Cloudy
1:53 AM 57.9 °F 45.0 °F 62% 30.08 in 10.0 mi Variable 4.6 mph - 0.00 in Rain Light Rain
2:04 AM 57.2 °F 46.4 °F 67% 30.10 in 10.0 mi Variable 6.9 mph - 0.00 in Rain , Thunderstorm Light Thunderstorms and Rain
2:16 AM 55.4 °F 46.4 °F 72% 30.11 in 10.0 mi Variable 5.8 mph - 0.01 in Rain , Thunderstorm Light Rain
2:39 AM 53.6 °F 48.2 °F 82% 30.13 in 10.0 mi NNW 5.8 mph - 0.02 in Rain Light Rain
2:53 AM 53.1 °F 50.0 °F 89% 30.12 in 5.0 mi Variable 3.5 mph - 0.06 in Rain Heavy Rain
3:53 AM 54.0 °F 52.0 °F 93% 30.08 in 7.0 mi ENE 5.8 mph - 0.17 in Rain Light Rain
4:26 AM 55.4 °F 53.6 °F 94% 30.10 in 6.0 mi Calm Calm - 0.04 in Rain Rain
4:53 AM 55.0 °F 53.1 °F 93% 30.03 in 5.0 mi East 9.2 mph - 0.16 in Rain Light Rain
5:53 AM 55.0 °F 54.0 °F 96% 30.10 in 10.0 mi NNW 8.1 mph - 0.00 in   Scattered Clouds
6:02 AM 55.4 °F 53.6 °F 94% 30.12 in 10.0 mi NNW 5.8 mph - N/A   Mostly Cloudy
6:44 AM 55.4 °F 53.6 °F 94% 30.14 in 10.0 mi Variable 4.6 mph - N/A   Overcast
6:53 AM 54.0 °F 53.1 °F 97% 30.15 in 10.0 mi North 4.6 mph - N/A   Overcast
7:53 AM 53.1 °F 51.1 °F 93% 30.17 in 10.0 mi ENE 6.9 mph - N/A   Overcast
8:53 AM 51.1 °F 50.0 °F 96% 30.21 in 10.0 mi Variable 6.9 mph - N/A   Overcast
9:37 AM 51.8 °F 48.2 °F 88% 30.23 in 10.0 mi NE 6.9 mph - N/A   Mostly Cloudy
9:53 AM 54.0 °F 48.9 °F 83% 30.22 in 10.0 mi Variable 6.9 mph - N/A   Overcast
10:18 AM 57.2 °F 48.2 °F 72% 30.24 in 10.0 mi Variable 5.8 mph - N/A   Mostly Cloudy
10:26 AM 57.2 °F 48.2 °F 72% 30.24 in 10.0 mi Variable 5.8 mph - N/A   Partly Cloudy
10:53 AM 57.9 °F 48.0 °F 70% 30.23 in 10.0 mi Variable 5.8 mph - N/A   Clear
11:53 AM 62.1 °F 46.9 °F 58% 30.22 in 10.0 mi Variable 6.9 mph - N/A   Clear
12:53 PM 64.9 °F 45.0 °F 48% 30.20 in 10.0 mi Variable 6.9 mph - N/A   Clear
1:53 PM 68.0 °F 39.0 °F 35% 30.18 in 10.0 mi ENE 6.9 mph - N/A   Clear
2:53 PM 70.0 °F 36.0 °F 29% 30.14 in 10.0 mi NE 8.1 mph - N/A   Clear
3:53 PM 71.1 °F 34.0 °F 26% 30.11 in 10.0 mi East 6.9 mph - N/A   Clear
4:53 PM 71.1 °F 33.1 °F 25% 30.10 in 10.0 mi Variable 4.6 mph - N/A   Clear
5:53 PM 70.0 °F 32.0 °F 25% 30.08 in 10.0 mi ENE 4.6 mph - N/A   Clear
6:53 PM 69.1 °F 32.0 °F 25% 30.08 in 10.0 mi ENE 3.5 mph - N/A   Clear
7:53 PM 63.0 °F 35.1 °F 35% 30.07 in 10.0 mi Calm Calm - N/A   Clear
8:53 PM 57.0 °F 37.9 °F 49% 30.08 in 10.0 mi Calm Calm - N/A   Clear
9:53 PM 53.1 °F 43.0 °F 69% 30.08 in 10.0 mi Calm Calm - N/A   Clear
10:53 PM 55.0 °F 42.1 °F 62% 30.06 in 10.0 mi Calm Calm - N/A   Clear
11:53 PM 54.0 °F 42.1 °F 64% 30.05 in 10.0 mi Calm Calm - N/A   Clear